EW6420 Weather Reports


Display with metric or nautical units.
time (UTC)temp
F
wind
direction
speed
MPH
gust
MPH
rain 1hr
in
rain 24hr
in
rain mn
in
humidity
%
barometer
mb
20260502123003 51 144 0.0 0.0 0.00 0.00 0.00 85 1016.5
20260502121502 51 144 0.0 2.0 0.00 0.00 0.00 85 1016.2
20260502114502 51 144 0.0 0.0 0.00 0.00 0.00 85 1016.6
20260502113002 51 144 0.0 2.0 0.00 0.00 0.00 84 1016.6
20260502111502 51 91 0.0 0.0 0.00 0.00 0.00 84 1016.6
20260502110005 52 91 0.0 2.0 0.00 0.00 0.00 83 1016.3
20260502104501 52 91 0.0 1.0 0.00 0.00 0.00 83 1016.9
20260502103003 52 91 0.0 2.0 0.00 0.00 0.00 83 1017.1
20260502101503 52 91 0.0 0.0 0.00 0.00 0.00 82 1016.9
20260502091500 53 91 0.0 0.0 0.00 0.00 0.00 79 1016.2
20260502070009 58 91 0.0 2.0 0.00 0.00 0.00 72 1016.1
20260502064504 59 91 0.0 0.0 0.00 0.00 0.00 71 1016.1
20260502063005 59 91 0.0 2.0 0.00 0.00 0.00 69 1016.1
20260502061503 60 91 0.0 2.0 0.00 0.00 0.00 69 1016.1
20260502054503 61 92 0.0 0.0 0.00 0.00 0.00 65 1015.8
20260502053005 61 92 0.0 0.0 0.00 0.00 0.00 63 1015.8
20260502051504 61 92 0.0 0.0 0.00 0.00 0.00 61 1015.7
20260502043005 63 92 0.0 0.0 0.00 0.00 0.00 60 1015.2
20260502041503 63 92 0.0 0.0 0.00 0.00 0.00 57 1015.0
20260502034505 65 92 0.0 0.0 0.00 0.00 0.00 55 1014.7
20260502033004 65 92 0.0 1.0 0.00 0.00 0.00 52 1014.4
20260502031504 66 92 0.0 2.0 0.00 0.00 0.00 51 1014.3
20260502030004 67 92 0.0 0.0 0.00 0.00 0.00 51 1014.2
20260502024503 68 92 0.0 2.0 0.00 0.00 0.00 50 1014.0
20260502021503 70 92 0.0 2.0 0.00 0.00 0.00 51 1013.8
20260502013003 72 68 0.0 2.0 0.00 0.00 0.00 50 1013.6
20260502011504 72 68 0.0 2.0 0.00 0.00 0.00 47 1013.7
20260502010005 72 143 1.0 2.0 0.00 0.00 0.00 47 1013.7
20260502004503 72 83 1.0 4.0 0.00 0.00 0.00 46 1013.7
20260502003003 72 125 0.0 1.0 0.00 0.00 0.00 46 1013.8
20260502001504 72 128 0.0 2.0 0.00 0.00 0.00 46 1013.8
20260502000005 72 128 0.0 2.0 0.00 0.00 0.00 45 1013.7
20260501234502 72 128 0.0 2.0 0.00 0.00 0.00 45 1013.8
20260501233005 72 72 0.0 2.0 0.00 0.00 0.00 44 1013.8
20260501231503 72 79 0.0 2.0 0.00 0.00 0.00 44 1014.0
20260501230006 71 100 0.0 2.0 0.00 0.00 0.00 47 1014.2
20260501224503 71 88 1.0 4.0 0.00 0.00 0.00 46 1014.5
20260501223003 71 81 0.0 4.0 0.00 0.00 0.00 47 1014.5
20260501221503 71 85 0.0 3.0 0.00 0.00 0.00 48 1014.7
20260501220006 70 70 1.0 5.0 0.00 0.00 0.00 47 1014.9
20260501214503 70 100 0.0 2.0 0.00 0.00 0.00 48 1014.9
20260501213005 69 91 0.0 2.0 0.00 0.00 0.00 47 1015.1
20260501211505 69 131 0.0 2.0 0.00 0.00 0.00 47 1015.2
20260501210004 68 85 0.0 2.0 0.00 0.00 0.00 49 1015.2
20260501204505 68 110 0.0 2.0 0.00 0.00 0.00 48 1015.2
20260501203003 67 110 0.0 2.0 0.00 0.00 0.00 50 1015.3
20260501201503 66 117 0.0 2.0 0.00 0.00 0.00 54 1015.4
20260501200005 66 76 0.0 2.0 0.00 0.00 0.00 56 1015.4
20260501194504 66 100 0.0 2.0 0.00 0.00 0.00 57 1015.5
20260501193004 66 102 0.0 2.0 0.00 0.00 0.00 57 1015.5
20260501191503 65 94 0.0 2.0 0.00 0.00 0.00 58 1015.5
20260501190004 65 58 0.0 2.0 0.00 0.00 0.00 59 1015.7
20260501184504 64 121 0.0 2.0 0.00 0.00 0.00 59 1015.8
20260501183005 63 88 0.0 2.0 0.00 0.00 0.00 63 1015.9
20260501181504 63 88 1.0 3.0 0.00 0.00 0.00 61 1016.0
20260501174501 61 36 0.0 2.0 0.00 0.00 0.00 67 1016.1
20260501173002 60 36 0.0 2.0 0.00 0.00 0.00 67 1016.2
20260501171501 59 98 1.0 3.0 0.00 0.00 0.00 71 1016.2
20260501163001 57 78 0.0 2.0 0.00 0.00 0.00 77 1016.6
20260501161501 56 77 0.0 2.0 0.00 0.00 0.00 78 1016.7
20260501160002 56 85 0.0 2.0 0.00 0.00 0.00 79 1016.8
20260501153003 54 106 0.0 0.0 0.00 0.00 0.00 84 1016.7
20260501151502 52 106 0.0 0.0 0.00 0.00 0.00 87 1016.7